loading
|

SCOUT A DEB, 2778

Orbit data source: Space-Track

SCOUT A DEB, 2778 is space debris in LEO originally from a launch on Fri, 14 Apr 1967 UTC launched from the Air Force Western Test Range (AFWTR). Debris objects in space refer to the collection of defunct objects orbiting the Earth. Examples of debris include non-operational satellites, rocket bodies, and fragments generated from explosions, collisions, or faulty payload assembly.

Loading next visibility...
Loading greatness...
SCOUT A DEB details
Identifier
2778, 1967-034D
Orbit
LEO
Last TLE update1 day ago
Origin
Flag of USUSN NAVAIR (US)
ManufacturerUnknown
MissionSpacecraft
Bus & MotorUnknown bus, Unknown motor
MassUnknown
Launch date (UTC)
1967-04-14 (57 years ago)
Launch vehicleUnknown
Launch site
Air Force Western Test Range (AFWTR)
Object type
Payload
Rocket body
Debris
Shape & HBRUnknown
Radar Cross SectionSmall (<0.1 m²)

Expand to show TLE details & history

TLE from 1 day ago
0 SCOUT A DEB
1 02778U 67034D   24283.61226258  .00000999  00000-0  18914-2 0  9997
2 02778  89.8293  47.2456 0121417 288.7559 202.7690 13.34853707791018
Epoch: 2024-10-09T14:41Z
Definitive object data (Epoch: 2024-10-09T14:41:39.486Z)
Latitude49.09675°
Longitude-12.07364°
Altitude1,220.535 km
Speed7.208 km/s
True Right ascension15h 08m 11s
True Declination48° 56' 13"
Sunlit
Object was in daylight at TLE epoch
Predictive object data (real-time)
Latitude5.35674°
Longitude168.11616°
Altitude1,114.632 km
Speed7.303 km/s
Apparent Right ascension03h 47m 15s
Apparent Declination-15° 35' 32"
Sunlit
Object is in full shadow
Predictive observer data (real-time)
Local Sidereal Time16:45:56
Azimuth31.914° NE
Elevation-62.516°
Doppler factor1
Orbital elements
Apogee1,216.69 km
Perigee1,034.475 km
Semi-major axis7,503.72 km
Eccentricity0.0121417
Inclination89.8293°
RAAN47.2456°
Arg. of periapsis288.7559°
True anomaly202.23797°
Mean anomaly202.769°
Eccentric anomaly202.50275°
Mean motion3.33909 °/min
BSTAR0.0018914
Period107.81 mins
No data available

SCOUT A DEB Visibility forecast

Observer location: 39.9160978°, -105.1181434

SCOUT A DEB is not visible in the next 10 days
Span
Click to sort rows by Start time (UTC) header in descending order
Start Az.
Max El. time (UTC)
Max El. Az.
Max El.
End time (UTC)
End Az.